Date String (YYYY-MM-DD hh:mm:ss) UTC,Instrument flags,Ambient pressure (hPa),Sample flow (lpm),Bypass flow (lpm),Sample temperature (°C),Ambient temperature (°C),ASC tube jacket temperature (°C),LED temperature (°C),Box temperature (°C),Sample RH (%),Span deviation,Mass concentration (μg/m³),Mass concentration (μg/m³),Mass concentration (μg/m³)
DateTimeUTC,F1_M11,P_M11,Q1_M11,Q2_M11,T1_M11,T2_M11,T3_M11,T4_M11,T5_M11,U1_M11,ZSPAN_M11,X2_M11,X0_M11,X1_M11
2023-03-05 15:00:00,,0815.3,5.00,0.00,21.9,21.1,00.0,30.7,23.7,13.4,-001.0,0009.45,0017.73,0007.87
2023-03-05 15:01:00,,0815.3,5.00,0.00,22.0,22.7,00.0,30.7,24.0,12.5,-000.9,0009.17,0017.03,0007.60
2023-03-05 15:02:00,,0815.3,4.97,0.00,22.2,23.1,00.0,30.7,24.2,12.7,-000.6,0008.77,0017.51,0007.26
2023-03-05 15:03:00,,0815.4,5.00,0.00,22.2,22.5,00.0,30.8,24.1,13.6,-000.5,0008.63,0017.45,0007.14
2023-03-05 15:04:00,,0815.4,4.99,0.00,22.2,21.9,00.0,30.8,24.0,13.5,-000.8,0008.71,0018.03,0007.17
2023-03-05 15:05:00,,0815.4,5.00,0.00,22.2,21.5,00.0,30.8,23.9,13.6,-000.7,0008.74,0018.29,0007.13
2023-03-05 15:06:00,,0815.4,5.01,0.00,22.2,21.2,00.0,30.8,23.9,14.2,-000.6,0008.81,0017.72,0007.13
2023-03-05 15:07:00,,0815.4,5.00,0.00,22.1,20.9,00.0,30.8,23.8,13.7,-000.3,0008.71,0017.54,0007.04
2023-03-05 15:08:00,,0815.3,4.99,0.00,22.1,20.7,00.0,30.8,23.8,14.5,-000.1,0008.67,0016.83,0006.98
2023-03-05 15:09:00,,0815.3,5.00,0.00,22.1,20.6,00.0,30.8,23.8,14.3,0000.1,0008.63,0016.96,0006.94
2023-03-05 15:10:00,,0815.4,4.99,0.00,22.1,20.6,00.0,30.8,23.8,13.6,0000.2,0008.51,0017.09,0006.85
2023-03-05 15:11:00,,0815.4,4.99,0.00,22.1,20.5,00.0,30.8,23.8,13.8,-000.0,0008.45,0017.17,0006.80
2023-03-05 15:12:00,,0815.4,4.99,0.00,22.1,20.4,00.0,30.8,23.8,14.0,-000.3,0008.56,0018.34,0006.94
2023-03-05 15:13:00,,0815.4,5.00,0.00,22.0,20.3,00.0,30.8,23.7,13.5,-000.5,0008.76,0018.45,0007.15
2023-03-05 15:14:00,,0815.4,5.00,0.00,22.0,20.3,00.0,30.8,23.7,13.9,-000.4,0008.87,0018.10,0007.24
2023-03-05 15:15:00,,0815.4,5.00,0.00,22.0,20.3,00.0,30.8,23.7,14.3,-000.1,0008.81,0017.88,0007.20
2023-03-05 15:16:00,,0815.4,5.00,0.00,22.0,20.3,00.0,30.8,23.8,14.4,-000.1,0008.76,0017.44,0007.18
2023-03-05 15:17:00,,0815.3,5.00,0.00,22.0,20.3,00.0,30.8,23.8,14.4,-000.4,0008.65,0017.26,0007.11
2023-03-05 15:18:00,,0815.3,5.01,0.00,22.0,20.4,00.0,30.8,23.8,14.3,-000.7,0008.52,0016.95,0007.05
2023-03-05 15:19:00,,0815.3,5.00,0.00,22.0,20.4,00.0,30.8,23.8,14.8,-000.8,0008.45,0017.15,0006.99
2023-03-05 15:20:00,,0815.4,4.99,0.00,22.0,20.4,00.0,30.8,23.7,14.1,-000.7,0008.28,0017.95,0006.87
2023-03-05 15:21:00,,0815.4,5.01,0.00,22.0,20.4,00.0,30.8,23.7,14.3,-000.5,0008.26,0017.95,0006.89
2023-03-05 15:22:00,,0815.4,4.97,0.00,22.0,20.4,00.0,30.8,23.7,14.2,-000.7,0008.26,0017.58,0006.90
2023-03-05 15:23:00,,0815.4,5.00,0.00,22.0,20.4,00.0,30.8,23.7,14.0,-000.7,0008.18,0016.28,0006.83
2023-03-05 15:24:00,,0815.4,4.99,0.00,22.0,20.4,00.0,30.8,23.8,14.0,-000.7,0008.13,0015.73,0006.77
2023-03-05 15:25:00,,0815.4,5.00,0.00,22.0,20.5,00.0,30.8,23.8,14.4,-000.8,0008.06,0015.60,0006.74
2023-03-05 15:26:00,,0815.4,4.99,0.00,22.0,20.5,00.0,30.7,23.8,14.3,-000.7,0007.90,0015.47,0006.63
2023-03-05 15:27:00,,0815.4,4.97,0.00,22.0,20.5,00.0,30.7,23.8,14.0,-000.5,0007.77,0015.04,0006.50
2023-03-05 15:28:00,,0815.4,5.00,0.00,22.0,20.4,00.0,30.7,23.8,12.9,-000.5,0007.53,0014.75,0006.31
2023-03-05 15:29:00,,0815.4,5.00,0.00,22.0,20.5,00.0,30.7,23.8,12.7,-000.4,0007.35,0014.76,0006.11
2023-03-05 15:30:00,,0815.4,5.00,0.00,22.0,20.5,00.0,30.7,23.8,12.9,-000.6,0007.10,0014.41,0005.90
2023-03-05 15:31:00,,0815.5,5.00,0.00,22.0,20.5,00.0,30.7,23.8,13.7,-000.5,0006.92,0012.80,0005.74
2023-03-05 15:32:00,,0815.6,5.01,0.00,22.0,20.5,00.0,30.7,23.8,13.9,-000.4,0006.84,0012.32,0005.62
2023-03-05 15:33:00,,0816.0,4.98,0.00,22.0,20.5,00.0,30.7,23.8,14.1,-000.2,0006.75,0012.24,0005.54
2023-03-05 15:34:00,,0815.9,5.02,0.00,22.1,21.2,00.0,30.7,23.9,14.3,0000.2,0006.71,0012.18,0005.53
2023-03-05 15:35:00,,0816.1,4.98,0.00,22.2,22.8,00.0,30.8,24.2,14.8,0000.5,0006.70,0012.11,0005.57
2023-03-05 15:36:00,,0816.1,4.99,0.00,22.3,23.4,00.0,30.8,24.4,14.6,0000.8,0006.69,0012.07,0005.59
2023-03-05 15:37:00,,0816.0,5.00,0.00,22.4,22.9,00.0,30.9,24.4,14.6,0000.6,0006.73,0011.89,0005.66
2023-03-05 15:38:00,,0816.0,5.03,0.00,22.4,22.4,00.0,30.9,24.2,14.0,-000.0,0006.72,0011.78,0005.70
2023-03-05 15:39:00,,0815.9,5.01,0.00,22.4,22.0,00.0,30.9,24.2,14.4,-000.3,0006.80,0011.61,0005.83
2023-03-05 15:40:00,,0816.0,5.01,0.00,22.4,21.7,00.0,31.0,24.2,14.7,-000.1,0006.96,0011.62,0005.99
2023-03-05 15:41:00,,0815.6,5.00,0.00,22.4,21.5,00.0,31.0,24.2,13.9,-000.2,0007.06,0011.72,0006.09
2023-03-05 15:42:00,,0815.5,5.01,0.00,22.4,21.3,00.0,31.0,24.2,13.8,-000.1,0007.09,0011.66,0006.16
2023-03-05 15:43:00,,0815.4,5.01,0.00,22.4,21.3,00.0,31.0,24.2,13.4,-000.3,0006.97,0011.90,0006.11
2023-03-05 15:44:00,,0815.4,5.00,0.00,22.4,21.2,00.0,31.0,24.2,13.3,-000.2,0006.89,0011.86,0006.03
2023-03-05 15:45:00,,0815.4,5.03,0.00,22.4,21.1,00.0,31.0,24.1,13.5,-000.1,0006.76,0011.68,0005.93
2023-03-05 15:46:00,,0815.4,5.01,0.00,22.4,21.0,00.0,31.0,24.1,14.1,-000.2,0006.68,0012.08,0005.83
2023-03-05 15:47:00,,0815.4,4.99,0.00,22.4,21.0,00.0,31.0,24.1,14.4,-000.2,0006.59,0012.10,0005.72
2023-03-05 15:48:00,,0815.4,4.98,0.00,22.3,21.0,00.0,31.0,24.1,14.1,-000.5,0006.48,0012.19,0005.60
2023-03-05 15:49:00,,0815.5,4.99,0.00,22.3,20.9,00.0,31.0,24.1,12.9,-000.3,0006.30,0012.04,0005.43
2023-03-05 15:50:00,,0815.5,5.01,0.00,22.3,20.9,00.0,31.0,24.1,13.2,0000.3,0006.14,0011.92,0005.26
2023-03-05 15:51:00,,0815.5,5.00,0.00,22.3,20.8,00.0,31.0,24.1,14.0,0000.3,0006.04,0011.87,0005.16
2023-03-05 15:52:00,,0815.7,4.99,0.00,22.3,20.8,00.0,31.0,24.0,14.6,0000.4,0006.04,0011.73,0005.20
2023-03-05 15:53:00,,0815.8,5.00,0.00,22.3,20.8,00.0,31.0,24.0,15.0,0000.4,0006.14,0011.79,0005.31
2023-03-05 15:54:00,,0816.1,4.99,0.00,22.3,20.7,00.0,31.0,23.9,14.2,0000.2,0006.24,0011.43,0005.41
2023-03-05 15:55:00,,0815.8,5.00,0.00,22.2,20.6,00.0,31.0,23.9,14.1,-000.0,0006.29,0011.22,0005.49
2023-03-05 15:56:00,,0815.5,5.01,0.00,22.2,20.6,00.0,31.0,23.9,14.2,-000.5,0006.38,0011.25,0005.56
2023-03-05 15:57:00,,0815.4,5.01,0.00,22.2,20.6,00.0,31.0,23.8,14.1,-000.7,0006.42,0010.91,0005.58
2023-03-05 15:58:00,,0815.4,5.00,0.00,22.2,20.6,00.0,31.0,23.8,14.1,-001.1,0006.42,0010.69,0005.59
2023-03-05 15:59:00,,0815.4,5.00,0.00,22.2,20.5,00.0,31.0,23.8,14.6,-001.4,0006.43,0010.58,0005.63
